GORIZONT 5 [-]

Last updated on Feb. 24, 2021, 6:34 a.m. UTC

1 13092U 82020A   21054.57703948 -.00000217  00000-0  00000-0 0  9993
2 13092  12.5499 319.2099 0031072 197.5369  11.6653  0.98534188102486
UTC
Height (km)
Latitude
Longitude
Inclination
Orbital Period
UTC large
Height (km)
Speed (km/s)
/
Latitude / Longitude
Inclination (degrees)
Orbital Period (minutes)
Azimuth
Elevation
Range (km)
Doppler Factor
iOS Compass Heading
iOS Angle

Next 30 passes for location: Hong Kong

Rise time Rise Azimuth (degrees) Set time Set Azimuth (degrees) Duration Max altitude (degrees)

No matching passes for this satellites